CW4713 Weather Reports


Display with metric or nautical units.
time (UTC)temp
F
wind
direction
speed
MPH
gust
MPH
rain 1hr
in
rain 24hr
in
rain mn
in
humidity
%
barometer
mb
20260508021304 45 315 4.0 7.0 0.00 0.16 0.00 69 1015.4
20260508020804 45 327 5.0 7.0 0.00 0.16 0.00 69 1015.3
20260508020304 45 344 5.0 8.0 0.00 0.16 0.00 68 1015.4
20260508015805 45 348 4.0 8.0 0.00 0.16 0.00 68 1015.5
20260508015306 45 340 5.0 7.0 0.00 0.16 0.00 68 1015.5
20260508014804 45 343 6.0 7.0 0.00 0.16 0.00 68 1015.5
20260508014304 45 346 4.0 9.0 0.00 0.16 0.00 67 1015.4
20260508013804 45 336 6.0 9.0 0.00 0.16 0.00 67 1015.5
20260508013304 45 322 5.0 10.0 0.00 0.16 0.00 67 1015.5
20260508012804 45 347 6.0 10.0 0.00 0.16 0.00 67 1015.5
20260508012307 45 331 5.0 12.0 0.00 0.16 0.00 66 1015.6
20260508011804 45 326 5.0 9.0 0.00 0.16 0.00 66 1015.7
20260508011304 45 330 7.0 10.0 0.00 0.16 0.00 65 1015.3
20260508010804 45 331 7.0 10.0 0.00 0.16 0.00 65 1015.7
20260508010304 46 314 6.0 10.0 0.00 0.16 0.00 65 1015.7
20260508005804 46 313 5.0 9.0 0.00 0.16 0.00 65 1015.7
20260508005306 46 337 6.0 9.0 0.00 0.16 0.00 65 1015.7
20260508004804 46 353 7.0 9.0 0.00 0.16 0.00 65 1015.7
20260508004304 46 338 6.0 12.0 0.00 0.16 0.00 64 1015.8
20260508003803 46 343 7.0 10.0 0.00 0.16 0.00 64 1015.8
20260508003304 46 329 8.0 12.0 0.00 0.16 0.00 64 1015.9
20260508002804 46 331 5.0 9.0 0.00 0.16 0.00 65 1015.9
20260508002306 46 342 5.0 10.0 0.00 0.16 0.00 65 1016.0
20260508001804 46 338 7.0 12.0 0.00 0.16 0.00 65 1015.9
20260508001304 46 346 5.0 9.0 0.00 0.16 0.00 65 1016.1
20260508000805 46 0 7.0 12.0 0.00 0.16 0.00 65 1016.1
20260508000305 46 348 8.0 12.0 0.00 0.16 0.00 65 1016.1
20260507235804 46 345 7.0 12.0 0.00 0.16 0.00 65 1016.2
20260507235307 46 344 9.0 12.0 0.00 0.16 0.00 65 1016.2
20260507234804 46 3 5.0 10.0 0.00 0.16 0.00 65 1016.3
20260507234304 46 9 4.0 10.0 0.00 0.16 0.00 64 1016.3
20260507233804 46 5 5.0 10.0 0.00 0.16 0.00 64 1016.3
20260507233304 46 9 5.0 10.0 0.00 0.16 0.00 63 1016.4
20260507232804 46 37 6.0 10.0 0.00 0.16 0.00 63 1016.4
20260507232306 46 343 8.0 13.0 0.00 0.16 0.00 62 1016.3
20260507231804 47 2 8.0 10.0 0.00 0.16 0.00 61 1016.4
20260507231305 47 301 2.0 6.0 0.00 0.16 0.00 61 1016.4
20260507230804 47 338 5.0 8.0 0.00 0.16 0.00 60 1016.4
20260507220305 49 188 6.0 10.0 0.00 0.16 0.00 54 1016.6
20260507215804 49 137 4.0 7.0 0.00 0.16 0.00 55 1016.6
20260507215306 49 161 4.0 7.0 0.00 0.16 0.00 54 1016.6
20260507214804 49 166 4.0 10.0 0.00 0.16 0.00 56 1016.7
20260507214304 49 188 4.0 7.0 0.00 0.16 0.00 56 1016.7
20260507213804 49 168 4.0 8.0 0.00 0.16 0.00 56 1016.7
20260507213304 49 195 6.0 10.0 0.00 0.16 0.00 56 1016.7
20260507212804 48 227 7.0 13.0 0.00 0.16 0.00 55 1016.7
20260507212307 49 208 8.0 15.0 0.00 0.16 0.00 55 1016.7
20260507211805 49 241 5.0 8.0 0.00 0.16 0.00 57 1016.7
20260507211304 48 225 4.0 9.0 0.00 0.16 0.00 58 1016.7
20260507210804 48 219 3.0 10.0 0.00 0.16 0.00 56 1016.7
20260507210304 48 323 1.0 2.0 0.00 0.16 0.00 59 1016.7
20260507205805 48 232 1.0 6.0 0.00 0.16 0.00 59 1016.8
20260507205306 48 158 3.0 5.0 0.00 0.16 0.00 59 1016.8
20260507204804 48 151 5.0 7.0 0.00 0.16 0.00 59 1017.0
20260507204304 48 189 4.0 8.0 0.00 0.16 0.00 59 1017.0
20260507203804 48 123 6.0 13.0 0.00 0.16 0.00 58 1017.0
20260507203304 48 203 5.0 8.0 0.00 0.16 0.00 60 1017.1
20260507202804 48 216 6.0 9.0 0.00 0.16 0.00 60 1017.1
20260507202306 47 223 5.0 9.0 0.00 0.16 0.00 59 1017.1
20260507201804 47 206 4.0 10.0 0.00 0.16 0.00 59 1017.1
20260507201304 47 166 7.0 12.0 0.00 0.16 0.00 58 1017.1
20260507200803 47 188 6.0 13.0 0.00 0.16 0.00 59 1017.0
20260507200304 47 213 7.0 13.0 0.00 0.16 0.00 61 1017.1
20260507195804 47 187 6.0 12.0 0.00 0.16 0.00 62 1017.1
20260507195305 47 230 4.0 9.0 0.00 0.16 0.00 64 1017.2
20260507194804 47 184 5.0 8.0 0.00 0.16 0.00 68 1017.2
20260507194304 47 163 2.0 7.0 0.00 0.16 0.00 70 1017.2
20260507193805 46 112 0.0 1.0 0.00 0.16 0.00 70 1017.2
20260507193304 46 90 3.0 5.0 0.00 0.16 0.00 69 1017.2
20260507192804 46 66 2.0 3.0 0.00 0.16 0.00 69 1017.2
20260507192306 46 186 2.0 5.0 0.00 0.16 0.00 69 1017.2
20260507191804 46 183 3.0 6.0 0.00 0.16 0.00 69 1017.2
20260507191304 46 214 5.0 9.0 0.00 0.16 0.00 68 1017.3
20260507190804 45 223 7.0 13.0 0.00 0.16 0.00 68 1017.3
20260507190304 45 225 7.0 9.0 0.00 0.16 0.00 71 1017.3
20260507185804 45 224 6.0 9.0 0.00 0.16 0.00 73 1017.4
20260507185306 45 184 3.0 8.0 0.00 0.16 0.00 76 1017.4
20260507184804 45 240 2.0 5.0 0.00 0.16 0.00 77 1017.5
20260507174304 43 81 1.0 3.0 0.00 0.16 0.00 84 1017.4
20260507163804 40 164 1.0 2.0 0.00 0.16 0.00 90 1017.7
20260507163303 40 16 1.0 2.0 0.00 0.16 0.00 90 1017.7
20260507162804 40 56 2.0 2.0 0.00 0.16 0.00 90 1017.8
20260507162306 39 42 0.0 1.0 0.00 0.16 0.00 91 1017.7
20260507161804 39 85 1.0 2.0 0.00 0.16 0.00 91 1017.6
20260507161304 39 192 0.0 0.0 0.00 0.16 0.00 91 1017.7
20260507160803 39 192 0.0 2.0 0.00 0.16 0.00 91 1017.7
20260507160303 39 246 0.0 2.0 0.00 0.16 0.00 91 1017.6
20260507155804 38 202 1.0 3.0 0.00 0.16 0.00 91 1017.6
20260507155306 38 52 0.0 0.0 0.00 0.16 0.00 91 1017.7
20260507154804 38 52 0.0 1.0 0.00 0.16 0.00 90 1017.6
20260507154304 38 37 1.0 2.0 0.00 0.16 0.00 90 1017.7
20260507153804 38 51 1.0 2.0 0.00 0.16 0.00 90 1017.6
20260507153304 38 91 2.0 3.0 0.00 0.16 0.00 90 1017.7
20260507152804 38 107 1.0 2.0 0.00 0.16 0.00 90 1017.6
20260507152306 38 56 0.0 0.0 0.00 0.16 0.00 90 1017.6
20260507151804 38 56 0.0 1.0 0.00 0.16 0.00 90 1017.7
20260507151304 38 117 0.0 0.0 0.00 0.16 0.00 89 1017.7
20260507150804 38 117 0.0 0.0 0.00 0.16 0.00 89 1017.7
20260507150303 38 117 0.0 0.0 0.00 0.16 0.00 89 1017.7
20260507145804 38 117 0.0 0.0 0.00 0.16 0.00 89 1017.8
20260507145306 38 117 0.0 0.0 0.00 0.16 0.00 89 1017.7
20260507144804 38 117 0.0 0.0 0.00 0.16 0.00 89 1017.7
20260507144304 38 117 0.0 2.0 0.00 0.16 0.00 88 1017.6
20260507143804 38 152 1.0 2.0 0.00 0.16 0.00 88 1017.7
20260507143304 38 44 1.0 2.0 0.00 0.16 0.00 88 1017.6
20260507142804 38 132 1.0 3.0 0.00 0.16 0.00 88 1017.7
20260507142306 38 117 0.0 0.0 0.00 0.16 0.00 88 1017.7
20260507141804 38 117 0.0 0.0 0.00 0.16 0.00 88 1017.7
20260507141304 38 117 0.0 0.0 0.00 0.16 0.00 88 1017.8
20260507140805 38 117 1.0 2.0 0.00 0.16 0.00 88 1017.8
20260507140304 38 169 2.0 3.0 0.00 0.16 0.00 88 1017.8
20260507135805 38 177 0.0 3.0 0.00 0.16 0.00 88 1017.8
20260507135306 38 217 3.0 6.0 0.00 0.16 0.00 88 1017.9
20260507134804 38 207 3.0 6.0 0.00 0.16 0.00 88 1017.9
20260507134304 38 239 2.0 6.0 0.00 0.16 0.00 89 1017.9
20260507133805 38 218 3.0 8.0 0.00 0.16 0.00 89 1017.9
20260507133304 38 189 1.0 3.0 0.00 0.16 0.00 89 1017.9
20260507132804 38 146 2.0 3.0 0.00 0.16 0.00 89 1017.9
20260507132307 38 163 2.0 2.0 0.00 0.16 0.00 89 1017.8
20260507131804 38 164 1.0 2.0 0.00 0.16 0.00 89 1017.7
20260507131304 38 135 2.0 3.0 0.00 0.16 0.00 89 1017.7
20260507130804 38 205 1.0 3.0 0.00 0.16 0.00 89 1017.6
20260507130304 38 161 1.0 2.0 0.00 0.16 0.00 89 1017.6
20260507125804 38 148 1.0 5.0 0.00 0.16 0.00 89 1017.6
20260507125306 38 149 3.0 5.0 0.00 0.16 0.00 89 1017.5
20260507124805 38 153 3.0 6.0 0.00 0.16 0.00 89 1017.4
20260507124304 38 151 3.0 6.0 0.00 0.16 0.00 90 1017.5
20260507123804 38 154 4.0 6.0 0.00 0.16 0.00 90 1017.5
20260507123304 38 148 2.0 6.0 0.00 0.16 0.00 90 1017.5
20260507122805 38 167 3.0 5.0 0.00 0.16 0.00 90 1017.6
20260507122307 38 172 3.0 5.0 0.00 0.16 0.00 90 1017.5
20260507121804 38 144 3.0 5.0 0.00 0.16 0.00 90 1017.5
20260507121304 38 145 3.0 6.0 0.00 0.16 0.00 90 1017.6
20260507120804 38 137 3.0 5.0 0.00 0.16 0.00 90 1017.6
20260507120304 38 126 2.0 5.0 0.00 0.16 0.00 91 1017.6
20260507115804 38 146 2.0 6.0 0.00 0.16 0.00 91 1017.5
20260507115307 38 210 4.0 10.0 0.00 0.16 0.00 91 1017.5
20260507114804 38 160 1.0 2.0 0.00 0.16 0.00 91 1017.5
20260507114304 38 189 2.0 3.0 0.00 0.16 0.00 91 1017.5
20260507113804 38 169 3.0 6.0 0.00 0.16 0.00 91 1017.4
20260507113304 38 170 4.0 6.0 0.00 0.16 0.00 91 1017.5
20260507112803 38 206 2.0 3.0 0.00 0.16 0.00 91 1017.4
20260507112306 37 162 3.0 6.0 0.00 0.16 0.00 91 1017.4
20260507111804 37 115 1.0 3.0 0.00 0.16 0.00 91 1017.4
20260507111304 37 77 0.0 1.0 0.00 0.16 0.00 91 1017.4
20260507110804 38 139 1.0 2.0 0.00 0.16 0.00 91 1017.4
20260507110304 38 151 2.0 3.0 0.00 0.16 0.00 91 1017.4
20260507105804 38 113 1.0 3.0 0.00 0.16 0.00 91 1017.4
20260507105306 38 136 2.0 3.0 0.00 0.16 0.00 91 1017.5
20260507104804 38 93 0.0 2.0 0.00 0.16 0.00 91 1017.4
20260507104304 38 109 0.0 0.0 0.00 0.16 0.00 91 1017.4
20260507103804 38 109 0.0 3.0 0.00 0.16 0.00 91 1017.5
20260507103304 38 158 2.0 3.0 0.00 0.16 0.00 91 1017.4
20260507102803 38 166 3.0 5.0 0.00 0.16 0.00 91 1017.5
20260507102306 38 159 1.0 2.0 0.00 0.16 0.00 91 1017.4
20260507101804 38 178 2.0 5.0 0.00 0.16 0.00 91 1017.4
20260507101304 38 133 2.0 3.0 0.00 0.16 0.00 91 1017.4
20260507100804 38 199 3.0 5.0 0.00 0.16 0.00 91 1017.4
20260507100304 38 191 2.0 3.0 0.00 0.16 0.00 91 1017.4
20260507095805 38 156 1.0 3.0 0.00 0.16 0.00 91 1017.4
20260507095306 38 54 1.0 3.0 0.00 0.16 0.00 91 1017.4
20260507094804 38 150 1.0 3.0 0.00 0.16 0.00 91 1017.5
20260507094304 39 191 3.0 6.0 0.00 0.16 0.00 92 1017.4
20260507093805 39 199 5.0 8.0 0.00 0.16 0.00 92 1017.3
20260507093305 39 202 5.0 7.0 0.00 0.16 0.00 92 1017.3
20260507092804 39 187 2.0 3.0 0.00 0.16 0.00 92 1017.2
20260507092307 39 221 5.0 8.0 0.00 0.16 0.00 92 1017.2
20260507091804 39 225 4.0 8.0 0.00 0.16 0.00 92 1017.2
20260507091304 39 221 5.0 8.0 0.00 0.16 0.00 92 1017.3
20260507090804 39 195 5.0 9.0 0.00 0.16 0.00 92 1017.2
20260507090304 39 198 4.0 7.0 0.00 0.16 0.00 92 1017.2
20260507085804 39 191 3.0 6.0 0.00 0.16 0.00 92 1017.1
20260507085306 39 199 1.0 7.0 0.00 0.16 0.00 92 1017.0
20260507084804 39 164 0.0 3.0 0.00 0.16 0.00 92 1016.9
20260507084304 39 163 1.0 2.0 0.01 0.16 0.00 92 1016.9
20260507083804 39 75 0.0 2.0 0.01 0.16 0.00 92 1016.9
20260507083304 39 175 2.0 2.0 0.01 0.16 0.00 92 1016.9
20260507082804 40 160 1.0 3.0 0.02 0.16 0.00 92 1016.8
20260507082306 40 128 0.0 3.0 0.02 0.16 0.00 92 1016.9
20260507081804 40 170 2.0 3.0 0.02 0.16 0.00 92 1016.8
20260507081304 40 192 2.0 5.0 0.03 0.16 0.00 92 1016.8
20260507080804 40 201 2.0 5.0 0.03 0.16 0.00 92 1016.8
20260507080305 40 194 3.0 7.0 0.03 0.16 0.00 92 1016.8
20260507075804 40 214 3.0 6.0 0.04 0.16 0.16 92 1016.7
20260507075307 40 182 3.0 7.0 0.05 0.16 0.16 92 1016.7
20260507074804 40 215 2.0 6.0 0.05 0.16 0.16 92 1016.6
20260507074304 40 228 3.0 7.0 0.05 0.15 0.15 92 1016.6
20260507073804 40 219 1.0 5.0 0.05 0.15 0.15 92 1016.6
20260507073304 40 28 0.0 0.0 0.06 0.15 0.15 91 1016.5
20260507072804 40 28 0.0 0.0 0.06 0.15 0.15 91 1016.5
20260507072306 41 28 0.0 0.0 0.05 0.14 0.14 91 1016.5
20260507071804 40 28 0.0 1.0 0.06 0.14 0.14 91 1016.5
20260507071304 40 41 1.0 1.0 0.05 0.13 0.13 91 1016.4
20260507070804 40 169 0.0 0.0 0.06 0.13 0.13 91 1016.4
20260507070304 41 169 0.0 2.0 0.06 0.13 0.13 91 1016.4
20260507065804 40 240 0.0 0.0 0.05 0.12 0.12 91 1016.3
20260507065306 41 240 0.0 2.0 0.04 0.11 0.11 91 1016.3
20260507064804 41 241 2.0 3.0 0.04 0.11 0.11 91 1016.3
20260507064304 41 244 0.0 2.0 0.03 0.10 0.10 90 1016.2
20260507063804 41 224 2.0 5.0 0.04 0.10 0.10 90 1016.1
20260507063304 41 206 3.0 5.0 0.03 0.09 0.09 90 1016.1
20260507062803 41 211 3.0 6.0 0.03 0.09 0.09 90 1016.0
20260507062306 41 208 2.0 7.0 0.03 0.09 0.09 90 1016.0
20260507061804 41 197 3.0 6.0 0.02 0.08 0.08 90 1015.9
20260507061304 41 201 3.0 6.0 0.02 0.08 0.08 90 1015.9
20260507060803 41 195 2.0 3.0 0.01 0.07 0.07 90 1015.8
20260507060304 41 192 2.0 5.0 0.01 0.07 0.07 90 1015.8
20260507055804 41 181 3.0 5.0 0.01 0.07 0.07 90 1015.7
20260507055306 41 154 3.0 5.0 0.01 0.07 0.07 90 1015.7
20260507054804 41 159 2.0 3.0 0.01 0.07 0.07 90 1015.6
20260507054304 41 235 2.0 5.0 0.02 0.07 0.07 89 1015.6
20260507053804 41 235 3.0 6.0 0.02 0.06 0.06 89 1015.4
20260507053304 41 223 3.0 6.0 0.03 0.06 0.06 89 1015.4
20260507052804 41 254 2.0 3.0 0.04 0.06 0.06 89 1015.4
20260507052306 41 185 0.0 3.0 0.04 0.06 0.06 89 1015.4
20260507051804 41 245 1.0 3.0 0.05 0.06 0.06 90 1015.5
20260507051304 41 221 2.0 3.0 0.05 0.06 0.06 88 1015.4
20260507050804 41 160 2.0 3.0 0.05 0.06 0.06 88 1015.3
20260507050304 41 131 1.0 2.0 0.05 0.06 0.06 88 1015.3
20260507045804 41 138 3.0 5.0 0.06 0.06 0.06 88 1015.3
20260507045306 41 184 3.0 8.0 0.06 0.06 0.06 88 1015.4
20260507044804 41 182 6.0 10.0 0.06 0.06 0.06 88 1015.5
20260507044304 41 204 7.0 12.0 0.05 0.05 0.05 88 1015.5
20260507043804 41 194 9.0 14.0 0.04 0.04 0.04 88 1015.5
20260507043304 41 215 9.0 16.0 0.03 0.03 0.03 87 1015.4
20260507042804 42 202 10.0 15.0 0.02 0.02 0.02 86 1015.4
20260507042306 42 216 10.0 17.0 0.02 0.02 0.02 85 1015.4
20260507041804 42 215 7.0 12.0 0.01 0.01 0.01 84 1015.4
20260507041304 43 230 9.0 13.0 0.01 0.01 0.01 83 1015.3
20260507040804 43 239 7.0 12.0 0.01 0.01 0.01 82 1015.3
20260507040304 44 243 7.0 14.0 0.01 0.01 0.01 82 1015.2
20260507035804 44 222 8.0 14.0 0.00 0.00 0.00 80 1015.1
20260507035306 45 234 7.0 13.0 0.00 0.00 0.00 79 1015.1
20260507034804 45 246 7.0 10.0 0.00 0.00 0.00 79 1015.0
20260507034304 45 225 3.0 5.0 0.00 0.00 0.00 78 1014.9
20260507033804 45 254 1.0 1.0 0.00 0.00 0.00 77 1014.7